Hourly Data Report for April 15, 2010

HALIFAX STANFIELD INT'L A
NOVA SCOTIA

44°52'48.060" N
63°30'00.050" W
145.40 m
8202250
71395
YHZ

Download Data

Hourly Data (April 2010)
Hourly Data Report for April 15, 2010
TIME
LST
Temp Definition
°C
Dew Point Definition
°C
Rel Hum Definition
%
Precip. Amount Definition
mm

Wind Dir Definition
10's deg

Wind Spd Definition
km/h
Visibility Definition
km
Stn Press Definition
kPa
Hmdx Definition


Wind Chill Definition


Weather Definition


00:00 2.4 0.6 88   18 11 24.1 100.60     Cloudy
01:00 1.1 -0.2 91   18 9 24.1 100.54     Cloudy
02:00 1.4 0.4 93   13 7 24.1 100.49     Mostly Cloudy
03:00 1.4 0.8 96   14 9 24.1 100.49     Cloudy
04:00 1.8 1.3 96   14 11 24.1 100.48     Cloudy
05:00 1.6 1.1 96   11 7 24.1 100.47     Cloudy
06:00 1.8 1.3 96   11 11 8.0 100.50     Rain Showers
07:00 2.0 1.6 97   8 7 8.0 100.53     Drizzle
08:00 2.4 1.6 94   9 13 19.3 100.56     Cloudy
09:00 3.3 2.0 91   9 13 16.1 100.60     Rain Showers
10:00 3.2 3.1 99   14 19 19.3 100.64     Drizzle
11:00 2.8 1.8 93   13 9 19.3 100.66     Rain Showers
12:00 3.7 2.8 94   13 19 19.3 100.63     Rain Showers
13:00 3.0 2.0 93   11 24 24.1 100.67     Snow Showers
14:00 3.7 1.5 86   10 19 24.1 100.68     Cloudy
15:00 3.9 0.3 77   9 13 24.1 100.65     Mostly Cloudy
16:00 4.6 -0.3 70   12 9 24.1 100.64     Mostly Cloudy
17:00 5.7 -0.1 66   15 7 24.1 100.64     Mostly Cloudy
18:00 4.3 -0.5 71   16 9 24.1 100.65     Mostly Cloudy
19:00 3.0 -0.4 78   19 7 24.1 100.67     Mostly Cloudy
20:00 0.7 0.1 96   10 6 2.4 100.71     Snow Showers
21:00 0.4 0.0 97     0 16.1 100.72     Snow Showers
22:00 1.0 0.7 98   30 7 3.2 100.70     Fog
23:00 1.0 0.0 93   36 7 12.9 100.67     Cloudy

Notes on Data Quality.

Legend

  • E = Estimated
  • M = Missing
  • NA = Not Available*
  • [empty] = Indicates an unobserved value
Date modified: